Date,TemperatureHighF,TemperatureAvgF,TemperatureLowF,DewpointHighF,DewpointAvgF,DewpointLowF,HumidityHigh,HumidityAvg,HumidityLow,PressureMaxIn,PressureMinIn,WindSpeedMaxMPH,WindSpeedAvgMPH,GustSpeedMaxMPH,PrecipitationSumIn
2013-12-1,64.0,38.7,21.8,41.1,30.0,19.5,94,75,37,30.14,29.88,4,0,6,0.00
2013-12-2,61.9,40.0,27.2,41.6,33.7,25.3,94,81,41,29.88,29.61,8,3,11,0.00
2013-12-3,62.2,46.7,29.1,45.7,39.0,26.9,95,77,47,29.61,29.47,8,3,10,0.01
2013-12-4,40.7,27.8,20.0,38.5,22.9,10.1,93,82,62,30.17,29.54,13,8,16,0.00
2013-12-5,20.1,16.0,13.2,10.1,5.5,1.9,84,63,53,30.50,30.17,12,6,17,0.00
2013-12-6,19.3,12.9,6.2,9.3,0.9,-2.9,84,59,41,30.74,30.44,8,4,12,0.00
2013-12-7,20.9,12.9,1.0,6.4,1.3,-4.2,80,61,44,30.78,30.37,10,5,14,0.00
2013-12-8,21.9,19.5,12.3,19.4,15.1,6.3,90,84,57,30.36,30.01,10,6,15,0.00
2013-12-9,17.6,11.4,5.9,9.0,4.6,-0.2,88,74,54,30.51,30.28,6,3,10,0.00
2013-12-10,42.5,23.6,6.4,18.6,11.1,0.4,82,62,30,30.45,30.19,12,5,16,0.00
2013-12-11,28.5,19.8,9.8,16.0,6.2,-0.9,85,57,31,30.69,30.28,7,2,11,0.00
2013-12-12,46.2,28.3,10.1,23.1,15.5,1.3,78,60,38,30.65,30.16,15,8,18,0.00
2013-12-13,47.8,38.4,28.9,36.8,31.8,23.0,85,77,65,30.16,29.77,15,8,19,0.00
2013-12-14,36.8,26.2,16.1,28.0,19.3,12.4,87,76,56,30.29,29.96,12,6,15,0.00
2013-12-15,60.4,35.6,16.5,29.2,21.3,13.0,90,62,26,30.28,30.07,11,2,16,0.00
2013-12-16,63.6,38.7,24.7,30.2,23.6,18.8,81,59,26,30.18,30.03,8,2,9,0.00
2013-12-17,54.0,35.1,22.5,33.0,22.9,17.7,89,65,33,30.37,30.17,9,2,13,0.00
2013-12-18,65.2,46.8,27.2,38.0,31.1,19.6,80,57,32,30.25,29.74,18,10,22,0.00
2013-12-19,57.7,48.5,29.9,48.7,41.6,22.9,90,77,62,29.74,29.56,13,8,18,0.00
2013-12-20,29.1,19.3,15.1,22.2,15.0,11.6,90,83,75,30.03,29.75,12,6,14,0.00
2013-12-21,24.6,22.8,21.2,22.0,18.7,15.4,92,84,77,29.95,29.66,8,4,11,0.00
2013-12-22,23.3,16.4,-1.8,20.7,12.7,-5.5,91,85,77,30.45,29.88,8,4,11,0.04
2013-12-23,18.5,11.6,-3.1,12.3,7.3,-6.7,90,83,75,30.74,30.46,5,2,7,0.00
2013-12-24,29.2,20.0,15.1,27.7,17.5,10.9,94,90,83,30.65,30.21,14,9,17,0.00